EA5DHO-13 Weather Reports


Display with metric or nautical units.
time (UTC)temp
F
wind
direction
speed
MPH
gust
MPH
rain 1hr
in
rain 24hr
in
rain mn
in
humidity
%
barometer
mb
20260906061444 73 258 3.0 6.0 0.00 0.00 0.00 59 1023.5
20260906060442 73 270 4.0 6.0 0.00 0.00 0.00 60 1023.5
20260906055438 74 248 4.0 7.0 0.00 0.00 0.00 58 1023.3
20260906054436 74 270 4.0 7.0 0.00 0.00 0.00 58 1023.2
20260906053431 74 257 3.0 4.0 0.00 0.00 0.00 59 1023.1
20260906052428 73 253 2.0 4.0 0.00 0.00 0.00 61 1023.1
20260906051425 73 248 2.0 4.0 0.00 0.00 0.00 61 1023.0
20260906050422 74 248 1.0 2.0 0.00 0.00 0.00 61 1022.9
20260906045419 74 248 1.0 2.0 0.00 0.00 0.00 61 1022.9
20260906044416 74 261 3.0 4.0 0.00 0.00 0.00 62 1023.0
20260906043512 74 248 3.0 6.0 0.00 0.00 0.00 64 1023.1
20260906042550 74 248 3.0 4.0 0.00 0.00 0.00 63 1023.1
20260906041505 74 262 6.0 8.0 0.00 0.00 0.00 63 1023.1
20260906040502 74 270 4.0 7.0 0.00 0.00 0.00 64 1023.1
20260906035459 75 277 4.0 6.0 0.00 0.00 0.00 64 1023.0
20260906034456 74 0.0 2.0 0.00 0.00 0.00 65 1023.1
20260906033453 74 270 4.0 6.0 0.00 0.00 0.00 66 1023.1
20260906031506 74 286 4.0 4.0 0.00 0.00 0.00 67 1023.1
20260906030443 74 270 4.0 6.0 0.00 0.00 0.00 66 1023.2
20260906025439 75 270 3.0 6.0 0.00 0.00 0.00 66 1023.2
20260906024456 75 248 3.0 4.0 0.00 0.00 0.00 66 1023.2
20260906023453 75 248 2.0 4.0 0.00 0.00 0.00 68 1023.3
20260906022430 75 248 2.0 4.0 0.00 0.00 0.00 68 1023.4
20260906021426 75 225 2.0 2.0 0.00 0.00 0.00 68 1023.4
20260906020444 75 248 3.0 4.0 0.00 0.00 0.00 68 1023.5
20260906015440 75 260 1.0 4.0 0.00 0.00 0.00 69 1023.5
20260906014417 76 270 2.0 4.0 0.00 0.00 0.00 69 1023.7
20260906013513 76 248 1.0 2.0 0.00 0.00 0.00 70 1023.8
20260906012510 76 248 0.0 2.0 0.00 0.00 0.00 70 1023.9
20260906011548 76 255 2.0 2.0 0.00 0.00 0.00 70 1023.8
20260906010504 76 238 3.0 4.0 0.00 0.00 0.00 71 1023.9
20260906005500 76 270 3.0 4.0 0.00 0.00 0.00 71 1023.9
20260906004458 76 255 4.0 6.0 0.00 0.00 0.00 70 1023.9
20260906003455 77 255 3.0 6.0 0.00 0.00 0.00 69 1023.9
20260906002451 77 248 2.0 4.0 0.00 0.00 0.00 71 1023.8
20260906001447 77 248 0.0 2.0 0.00 0.00 0.00 71 1023.9
20260906000444 77 248 1.0 2.0 0.00 0.00 0.00 71 1023.8
20260905235441 77 221 2.0 2.0 0.00 0.00 0.00 72 1023.9
20260905234438 77 248 2.0 2.0 0.00 0.00 0.00 72 1024.0
20260905233434 77 242 2.0 4.0 0.00 0.00 0.00 72 1024.0
20260905232431 77 225 2.0 4.0 0.00 0.00 0.00 72 1024.0
20260905231428 78 250 2.0 4.0 0.00 0.00 0.00 73 1024.1
20260905230425 78 270 3.0 4.0 0.00 0.00 0.00 73 1024.2
20260905225423 78 248 2.0 2.0 0.00 0.00 0.00 72 1024.2
20260905224420 78 255 2.0 4.0 0.00 0.00 0.00 72 1024.2
20260905223415 79 0.0 0.0 0.00 0.00 0.00 71 1024.3
20260905222512 79 0.0 0.0 0.00 0.00 0.00 71 1024.2
20260905221509 79 240 1.0 2.0 0.00 0.00 0.00 71 1024.2
20260905220505 80 248 2.0 4.0 0.00 0.00 0.00 71 1024.2
20260905215502 81 274 2.0 2.0 0.00 0.00 0.00 67 1024.3
20260905214459 81 0 1.0 2.0 0.00 0.00 0.00 66 1024.3
20260905213456 80 23 1.0 2.0 0.00 0.00 0.00 69 1024.3
20260905212453 80 0.0 0.0 0.00 0.00 0.00 71 1024.3
20260905211449 80 0.0 0.0 0.00 0.00 0.00 72 1024.3
20260905210447 81 23 0.0 2.0 0.00 0.00 0.00 72 1024.3
20260905205504 81 0.0 2.0 0.00 0.00 0.00 72 1024.4
20260905204440 81 0.0 0.0 0.00 0.00 0.00 72 1024.4
20260905203438 81 0.0 0.0 0.00 0.00 0.00 73 1024.4
20260905202434 81 23 1.0 2.0 0.00 0.00 0.00 73 1024.5
20260905201430 81 0.0 2.0 0.00 0.00 0.00 74 1024.4
20260905200427 81 0.0 2.0 0.00 0.00 0.00 75 1024.4
20260905195424 81 23 1.0 4.0 0.00 0.00 0.00 75 1024.2
20260905194422 82 0.0 2.0 0.00 0.00 0.00 76 1024.2
20260905193437 82 0.0 2.0 0.00 0.00 0.00 75 1024.1
20260905192514 82 0.0 0.0 0.00 0.00 0.00 76 1024.2
20260905191511 82 23 1.0 2.0 0.00 0.00 0.00 76 1024.1
20260905190507 82 0.0 2.0 0.00 0.00 0.00 76 1023.9
20260905185506 82 45 0.0 4.0 0.00 0.00 0.00 75 1023.8
20260905184501 82 0.0 0.0 0.00 0.00 0.00 74 1023.8
20260905183519 82 45 1.0 4.0 0.00 0.00 0.00 74 1023.7
20260905182455 83 45 1.0 4.0 0.00 0.00 0.00 72 1023.7
20260905181512 83 0.0 0.0 0.00 0.00 0.00 71 1023.6
20260905180449 84 68 0.0 2.0 0.00 0.00 0.00 71 1023.6
20260905175445 83 90 2.0 4.0 0.00 0.00 0.00 70 1023.6
20260905174441 84 82 4.0 7.0 0.00 0.00 0.00 71 1023.6
20260905173438 84 78 2.0 7.0 0.00 0.00 0.00 71 1023.5
20260905172517 84 56 2.0 4.0 0.00 0.00 0.00 71 1023.5
20260905171432 85 68 4.0 7.0 0.00 0.00 0.00 71 1023.3
20260905170450 86 68 3.0 7.0 0.00 0.00 0.00 70 1023.3
20260905165426 86 68 1.0 4.0 0.00 0.00 0.00 71 1023.4
20260905164422 86 90 3.0 8.0 0.00 0.00 0.00 66 1023.2
20260905163419 87 75 4.0 6.0 0.00 0.00 0.00 65 1023.2
20260905162417 88 183 4.0 7.0 0.00 0.00 0.00 61 1023.2
20260905161533 88 144 1.0 6.0 0.00 0.00 0.00 59 1023.1
20260905160510 87 113 3.0 8.0 0.00 0.00 0.00 61 1023.1
20260905155506 88 143 7.0 13.0 0.00 0.00 0.00 58 1023.2
20260905154503 89 144 5.0 8.0 0.00 0.00 0.00 54 1023.1
20260905153501 89 97 3.0 8.0 0.00 0.00 0.00 53 1023.1
20260905152457 88 76 4.0 7.0 0.00 0.00 0.00 57 1023.1
20260905151454 87 68 9.0 11.0 0.00 0.00 0.00 55 1023.1
20260905150450 88 90 8.0 11.0 0.00 0.00 0.00 56 1023.3
20260905145448 89 90 6.0 11.0 0.00 0.00 0.00 55 1023.3
20260905144445 88 96 6.0 13.0 0.00 0.00 0.00 56 1023.4
20260905143441 88 82 7.0 13.0 0.00 0.00 0.00 58 1023.3
20260905142437 88 68 7.0 11.0 0.00 0.00 0.00 58 1023.4
20260905141434 89 76 5.0 8.0 0.00 0.00 0.00 58 1023.5
20260905140431 90 74 6.0 8.0 0.00 0.00 0.00 56 1023.4
20260905135429 90 106 5.0 8.0 0.00 0.00 0.00 57 1023.7
20260905134424 89 113 5.0 8.0 0.00 0.00 0.00 57 1023.7
20260905133421 89 87 4.0 8.0 0.00 0.00 0.00 58 1023.7
20260905132438 90 45 6.0 9.0 0.00 0.00 0.00 53 1023.8
20260905131535 89 113 6.0 11.0 0.00 0.00 0.00 59 1023.9
20260905130511 91 39 2.0 6.0 0.00 0.00 0.00 57 1023.9
20260905125528 90 66 5.0 9.0 0.00 0.00 0.00 61 1023.8
20260905124505 89 84 6.0 11.0 0.00 0.00 0.00 62 1024.0
20260905123501 89 90 6.0 11.0 0.00 0.00 0.00 60 1024.0
20260905122458 90 126 5.0 11.0 0.00 0.00 0.00 60 1024.1
20260905121455 91 94 3.0 6.0 0.00 0.00 0.00 58 1024.1
20260905120452 89 99 8.0 14.0 0.00 0.00 0.00 60 1024.0
20260905115449 91 113 5.0 9.0 0.00 0.00 0.00 55 1024.0
20260905114445 89 90 8.0 11.0 0.00 0.00 0.00 58 1024.2
20260905113442 90 142 5.0 9.0 0.00 0.00 0.00 58 1024.0
20260905112500 90 133 5.0 11.0 0.00 0.00 0.00 59 1023.9
20260905111436 90 113 5.0 8.0 0.00 0.00 0.00 59 1023.9
20260905110433 89 82 9.0 11.0 0.00 0.00 0.00 61 1023.9
20260905105429 92 113 5.0 7.0 0.00 0.00 0.00 59 1023.9
20260905104426 94 90 3.0 4.0 0.00 0.00 0.00 48 1023.9
20260905103423 93 192 3.0 4.0 0.00 0.00 0.00 48 1024.0
20260905102420 93 86 2.0 7.0 0.00 0.00 0.00 48 1024.0
20260905101416 95 135 1.0 2.0 0.00 0.00 0.00 47 1024.1
20260905100513 93 0.0 0.0 0.00 0.00 0.00 48 1024.0
20260905095510 92 0.0 0.0 0.00 0.00 0.00 51 1023.9
20260905094506 92 0.0 2.0 0.00 0.00 0.00 53 1023.9
20260905093503 89 0.0 0.0 0.00 0.00 0.00 57 1024.0
20260905092500 88 248 1.0 2.0 0.00 0.00 0.00 59 1023.7
20260905091517 86 210 1.0 4.0 0.00 0.00 0.00 62 1023.7
20260905090454 86 248 0.0 2.0 0.00 0.00 0.00 64 1023.7
20260905085450 84 239 3.0 4.0 0.00 0.00 0.00 65 1023.6
20260905084447 83 240 5.0 7.0 0.00 0.00 0.00 68 1023.6
20260905083444 83 248 2.0 4.0 0.00 0.00 0.00 71 1023.5
20260905082441 81 270 3.0 4.0 0.00 0.00 0.00 74 1023.4
20260905081439 80 279 5.0 8.0 0.00 0.00 0.00 76 1023.4
20260905080435 80 279 4.0 7.0 0.00 0.00 0.00 76 1023.3
20260905075431 79 270 3.0 6.0 0.00 0.00 0.00 76 1023.4
20260905074429 78 263 4.0 7.0 0.00 0.00 0.00 75 1023.4
20260905073424 77 270 4.0 7.0 0.00 0.00 0.00 76 1023.4
20260905072421 76 248 4.0 6.0 0.00 0.00 0.00 77 1023.4
20260905071418 76 256 3.0 6.0 0.00 0.00 0.00 80 1023.3
20260905070435 76 270 2.0 4.0 0.00 0.00 0.00 81 1023.3
20260905065512 76 270 1.0 2.0 0.00 0.00 0.00 82 1023.1
20260905064510 75 270 0.0 2.0 0.00 0.00 0.00 84 1023.0
20260905063506 74 264 3.0 4.0 0.00 0.00 0.00 84 1023.2
20260905062503 74 255 4.0 6.0 0.00 0.00 0.00 84 1023.2